Location: Althorst
(53.6379°N, 10.7715°E)
Time: 15:09:56
(UTC+00:00)

Cosmos 1536 - Pass Details

Date: 10 December 2019
Orbit: 540 x 559 km, 82.5° (Epoch: 19 January)

Event Time Altitude Azimuth Distance (km) Brightness Sun altitude
Rises 16:44:25 0° 348° (NNW) 2,745 6.3 -14.7°
Reaches altitude 10° 16:46:36 10° 347° (NNW) 1,842 5.4 -15.0°
Maximum altitude 16:50:39 81° 260° (W) 563 2.9 -15.6°
Drops below altitude 10° 16:54:39 10° 174° (S) 1,815 5.6 -16.1°
Sets 16:56:47 0° 173° (S) 2,700 6.5 -16.4°
